Kahului, HI

9:10 PM HST on February 06, 2016 (GMT -1000)
Kahului

Weather History for PHOG - October, 2012

Change the Weather History Date:

Tuesday, October 30, 2012

  Actual Average Record
Temperature  
Mean Temperature 78 °F 77 °F  
Max Temperature 86 °F 86 °F 95 °F (1984)
Min Temperature 69 °F 69 °F 59 °F (1949)
Degree Days  
Heating Degree Days 0 0  
Month to date heating degree days 0 0  
Since 1 July heating degree days 12 0  
Cooling Degree Days 13 12  
Month to date cooling degree days 390 397  
Year to date cooling degree days 3332 3365  
Growing Degree Days 26 (Base 50)    
Moisture  
Dew Point 71 °F    
Average Humidity 81    
Maximum Humidity 100    
Minimum Humidity 61    
Precipitation  
Precipitation T in 0.05 in 0.55 in (1951)
Month to date precipitation 0.01 1.15  
Year to date precipitation 4.71 12.23  
Snow  
Snow 0.00 in - - ()
Month to date snowfall 0.0  
Since 1 July snowfall 0.0  
Since 1 September snowfall 0.0  
Snow Depth 0.00 in    
Sea Level Pressure  
Sea Level Pressure 30.06 in    
Wind  
Wind Speed 15 mph (NE)    
Max Wind Speed 26 mph    
Max Gust Speed 32 mph    
Visibility 10 miles    
Events Rain    
T = Trace of Precipitation, MM = Missing Value Source: NWS Daily Summary

Daily Weather History Graph

Daily Weather History Graph

Search for Another Location

Airport or City:

Trip Planner

Search our weather history database for the weather conditions in past years. The results will help you decide how hot, cold, wet, or windy it might be!

Date:

Astronomy

Oct. 30, 2012 Rise Set
Actual Time 6:27 AM HST 5:50 PM HST
Civil Twilight 6:04 AM HST 6:13 PM HST
Nautical Twilight 5:38 AM HST 6:39 PM HST
Astronomical Twilight 5:12 AM HST 7:05 PM HST
Moon 6:39 PM HST (10/30) 7:14 AM HST (10/30)
Length of Visible Light 12h 08m
Length of Day
11h 23m
Full, 99% of the Moon is Illuminated
Oct 30
Full
Nov 6
Last Quarter
Nov 13
New
Nov 20
First Quarter
Nov 28
Full

Hourly Weather History & Observations

Time (HST) Temp. Heat Index Dew Point Humidity Pressure Visibility Wind Dir Wind Speed Gust Speed Precip Events Conditions
12:54 AM 73.0 °F - 68.0 °F 84% 30.08 in 10.0 mi NE 9.2 mph - N/A   Clear
1:54 AM 73.9 °F - 69.1 °F 85% 30.07 in 10.0 mi NE 16.1 mph - N/A   Partly Cloudy
2:54 AM 73.0 °F - 71.1 °F 93% 30.06 in 10.0 mi NNE 11.5 mph - 0.00 in   Clear
3:54 AM 73.0 °F - 70.0 °F 90% 30.06 in 10.0 mi NE 6.9 mph - N/A   Overcast
4:54 AM 73.0 °F - 71.1 °F 93% 30.07 in 10.0 mi NE 8.1 mph - N/A   Clear
5:54 AM 72.0 °F - 72.0 °F 100% 30.08 in 10.0 mi NE 12.7 mph - 0.00 in Rain Light Rain
6:54 AM 72.0 °F - 72.0 °F 100% 30.09 in 10.0 mi NE 6.9 mph - 0.00 in   Scattered Clouds
7:54 AM 75.9 °F - 73.0 °F 91% 30.09 in 10.0 mi ENE 4.6 mph - 0.00 in   Scattered Clouds
8:54 AM 80.1 °F 84.2 °F 73.0 °F 79% 30.10 in 10.0 mi NE 15.0 mph - N/A   Partly Cloudy
9:54 AM 82.0 °F 85.9 °F 70.0 °F 67% 30.09 in 10.0 mi NE 17.3 mph 23.0 mph N/A   Partly Cloudy
10:54 AM 84.0 °F 88.4 °F 70.0 °F 63% 30.06 in 10.0 mi NE 21.9 mph - N/A   Partly Cloudy
11:54 AM 84.9 °F 90.1 °F 71.1 °F 63% 30.04 in 10.0 mi NE 24.2 mph - N/A   Scattered Clouds
12:54 PM 84.0 °F 89.0 °F 71.1 °F 65% 30.01 in 10.0 mi NE 25.3 mph 29.9 mph N/A   Partly Cloudy
1:54 PM 84.0 °F 89.0 °F 71.1 °F 65% 30.00 in 10.0 mi NE 23.0 mph - N/A   Partly Cloudy
2:54 PM 82.9 °F 88.0 °F 72.0 °F 69% 29.99 in 10.0 mi NE 21.9 mph 27.6 mph N/A   Partly Cloudy
3:54 PM 81.0 °F 84.4 °F 70.0 °F 69% 30.00 in 10.0 mi ENE 21.9 mph 31.1 mph N/A   Scattered Clouds
4:54 PM 79.0 °F - 69.1 °F 72% 30.01 in 10.0 mi NE 19.6 mph 24.2 mph N/A   Scattered Clouds
5:54 PM 77.0 °F - 71.1 °F 82% 30.03 in 10.0 mi NE 12.7 mph 23.0 mph N/A   Scattered Clouds
6:54 PM 75.0 °F - 69.1 °F 82% 30.06 in 10.0 mi ENE 13.8 mph - N/A   Partly Cloudy
7:54 PM 73.9 °F - 70.0 °F 87% 30.08 in 10.0 mi ENE 12.7 mph - N/A   Partly Cloudy
8:54 PM 73.9 °F - 70.0 °F 87% 30.10 in 10.0 mi ENE 13.8 mph 21.9 mph N/A   Partly Cloudy
9:54 PM 73.9 °F - 71.1 °F 91% 30.11 in 10.0 mi NE 9.2 mph - N/A   Scattered Clouds
10:54 PM 73.9 °F - 71.1 °F 91% 30.10 in 10.0 mi NE 10.4 mph - N/A   Mostly Cloudy
11:54 PM 73.9 °F - 69.1 °F 85% 30.09 in 10.0 mi NE 11.5 mph - N/A   Clear